{"data":{"norad_id":45443,"intl_designator":"2020-020V","name":"ONEWEB-0055","alt_names":[],"object_type":"PAYLOAD","status":"ACTIVE","operator":null,"country":"UK","launch_date":"2020-03-21","launch_site_code":"TYMSC","launch_vehicle":null,"mission":null,"orbit_class":"UNKNOWN","rcs_meters":null,"size_class":null,"mass_kg":null,"dimensions":null,"purposes":["comms"],"wikipedia_slug":null,"has_3d_model":false,"image_url":null,"decayed_at":null,"tle_current":{"epoch":"2026-09-20T02:05:06.112320Z","epoch_age_seconds":50127,"freshness":"FRESH","line1":"1 45443U 20020V   26263.08687630 -.00000343  00000+0 -10042-2 0  9991","line2":"2 45443  87.8978   2.2074 0001807 103.0997 257.0332 13.11418076315057","mean_motion":13.11418076,"eccentricity":0.0001807,"inclination_deg":87.8978,"raan_deg":2.2074,"arg_perigee_deg":103.0997,"mean_anomaly_deg":257.0332,"bstar":-0.0010042,"rev_number":31505,"period_min":109.80480034195,"perigee_km":1216.3057673252,"apogee_km":1219.0508949859,"semimajor_km":7595.8153311555,"source":"CELESTRAK","updated_at":"2026-09-20T09:00:44.556301Z"}}}